TimeEDT,TemperatureF,Dew PointF,Humidity,Sea Level PressureIn,VisibilityMPH,Wind Direction,Wind SpeedMPH,Gust SpeedMPH,PrecipitationIn,Events,Conditions,WindDirDegrees,DateUTC
12:54 AM,32.0,8.1,37,30.26,10.0,NW,11.5,20.7,N/A,,Clear,310,2012-03-27 04:54:00
1:54 AM,30.9,9.0,40,30.27,10.0,WNW,10.4,-,N/A,,Clear,290,2012-03-27 05:54:00
2:54 AM,30.9,9.0,40,30.28,10.0,Variable,3.5,-,N/A,,Clear,0,2012-03-27 06:54:00
3:54 AM,30.0,9.0,41,30.29,10.0,WNW,8.1,-,N/A,,Clear,300,2012-03-27 07:54:00
4:54 AM,28.9,10.0,45,30.30,10.0,WNW,10.4,-,N/A,,Clear,290,2012-03-27 08:54:00
5:54 AM,28.9,7.0,40,30.32,10.0,NW,8.1,-,N/A,,Clear,310,2012-03-27 09:54:00
6:54 AM,27.0,6.1,41,30.34,10.0,NNW,5.8,-,N/A,,Clear,330,2012-03-27 10:54:00
7:54 AM,28.9,7.0,40,30.37,10.0,WNW,6.9,-,N/A,,Clear,290,2012-03-27 11:54:00
8:54 AM,30.9,6.1,35,30.38,10.0,NNW,8.1,16.1,N/A,,Clear,340,2012-03-27 12:54:00
9:54 AM,34.0,6.1,31,30.38,10.0,NNW,8.1,-,N/A,,Clear,340,2012-03-27 13:54:00
10:54 AM,37.0,6.1,28,30.38,10.0,Calm,Calm,-,N/A,,Clear,0,2012-03-27 14:54:00
11:54 AM,39.9,3.9,22,30.35,10.0,Variable,3.5,-,N/A,,Clear,0,2012-03-27 15:54:00
12:54 PM,44.1,6.1,21,30.33,10.0,Variable,5.8,-,N/A,,Clear,0,2012-03-27 16:54:00
1:54 PM,46.9,7.0,20,30.32,10.0,WSW,11.5,16.1,N/A,,Clear,240,2012-03-27 17:54:00
2:54 PM,48.0,7.0,19,30.28,10.0,SW,6.9,16.1,N/A,,Clear,230,2012-03-27 18:54:00
3:54 PM,50.0,9.0,19,30.26,10.0,SW,5.8,-,N/A,,Clear,220,2012-03-27 19:54:00
4:54 PM,52.0,7.0,16,30.23,10.0,WSW,5.8,-,N/A,,Clear,240,2012-03-27 20:54:00
5:54 PM,52.0,3.9,14,30.20,10.0,Calm,Calm,-,N/A,,Clear,0,2012-03-27 21:54:00
6:54 PM,51.1,6.1,16,30.18,10.0,Calm,Calm,-,N/A,,Clear,0,2012-03-27 22:54:00
7:54 PM,48.0,9.0,21,30.18,10.0,South,5.8,-,N/A,,Clear,170,2012-03-27 23:54:00
8:54 PM,48.0,10.9,22,30.17,10.0,South,9.2,18.4,N/A,,Clear,170,2012-03-28 00:54:00
9:54 PM,45.0,12.0,26,30.16,10.0,North,5.8,-,N/A,,Clear,10,2012-03-28 01:54:00
10:54 PM,46.0,14.0,28,30.13,10.0,ENE,3.5,-,N/A,,Clear,60,2012-03-28 02:54:00
11:54 PM,46.0,14.0,28,30.09,10.0,Variable,5.8,-,N/A,,Clear,0,2012-03-28 03:54:00